Flag for U.S.A. Weather past 2 weeks in Peoria, Illinois, U.S.A.

Now
65 °F

Clear.


Feels Like: 65 °F
Forecast: 57 / 65 °F
Wind: No wind

Location: Greater Peoria Regional Airport

Current Time: Jul 7, 2015 at 11:27:28 PM

Latest Report: Jul 7, 2015 at 9:54 PM


Visibility: 7 mi

Pressure: 30.08 "Hg

Humidity: 78%

Dew point: 58 °F

Location of PeoriaLocation

Historic Weather in Peoria — Graph

°F

Peoria temperature yesterday

Maximum temperature yesterday: 89 °F (at 3:54 PM)
Minimum temperature yesterday: 70 °F (at 4:54 AM)
Average temperature yesterday: 79 °F

Past Weeks' High & Low Weather Summary

 TemperatureHumidityPressure
High89 °F (Jul 6, 3:54 PM)90% (Jun 25, 3:54 AM)30.21 "Hg (Jun 25, 3:54 AM)
Low60 °F (Jul 2, 4:54 AM)39% (Jun 23, 2:54 PM)29.75 "Hg (Jun 29, 2:54 AM)
Average73 °F72%29.94 "Hg
* Reported Jun 22 8:54 PM — Jul 7 8:54 PM, Peoria, Weather by CustomWeather, © 2015

Note: Actual official high and low records may vary slightly from our data, if they occured in-between our weather recording intervals... More about our weather records

Advertising

Peoria weather history for previous 24 hours

 ConditionsComfort  
Time TempWeatherWind HumidityBarometerVisibility
8:54 PM
Tue, Jul 7
66 °FSunny.No wind78%30.04 "Hg3 mi
7:54 PM70 °FSunny.5 mph68%30.03 "Hg5 mi
6:54 PM72 °FHaze.8 mph61%30.02 "Hg5 mi
5:54 PM75 °FScattered clouds.8 mph58%30.01 "Hg5 mi
4:54 PM75 °FPartly sunny.7 mph55%30.02 "Hg5 mi
3:54 PM74 °FHaze.9 mph60%30.01 "Hg5 mi
2:54 PM72 °FHaze.6 mph66%30.02 "Hg6 mi
1:54 PM68 °FMore clouds than sun.6 mph78%30.02 "Hg8 mi
1:02 PM65 °FFog.9 mph87%30.03 "Hg4 mi
12:54 PM65 °FLight rain. Mostly cloudy.10 mph85%30.01 "Hg2 mi
11:54 AM66 °FMostly cloudy.8 mph84%30.00 "Hg4 mi
10:54 AM67 °FMostly cloudy.10 mph79%29.98 "Hg10 mi
9:54 AM65 °FFog.12 mph87%29.96 "Hg4 mi
8:54 AM66 °FFog.7 mph87%29.93 "Hg2 mi
7:54 AM65 °FLight rain. Fog.7 mph87%29.91 "Hg2 mi
6:54 AM65 °FRain. Fog.8 mph87%29.90 "Hg2 mi
6:01 AM67 °FLight rain. Fog.8 mph87%29.91 "Hg3 mi
4:54 AM70 °FLight rain. Fog.6 mph87%29.88 "Hg2 mi
3:54 AM73 °FOvercast.5 mph90%29.84 "Hg10 mi
2:54 AM73 °FPassing clouds.3 mph90%29.85 "Hg10 mi
1:54 AM73 °FLight rain. Passing clouds.3 mph90%29.84 "Hg10 mi
12:54 AM74 °FLight rain. Fog.No wind88%29.84 "Hg5 mi
11:54 PM
Mon, Jul 6
74 °FLight rain. Partly cloudy.5 mph88%29.85 "Hg8 mi
11:04 PM74 °FLight rain. Passing clouds.6 mph88%29.87 "Hg10 mi
Weather by CustomWeather, © 2015

See weather overviewHow to use our weather pages